Regional Weather Roundup
Issued by NWS

Home | Current Version | Previous Version | Text Only | Print | Product List | Glossary Off
Versions: 1 2 3 4 5 6 7 8 9 10 11 12 13 14 15 16 17 18 19 20 21 22 23 24 25 26 27 28 29 30 31 32 33 34 35 36 37 38 39 40 41 42 43 44 45 46 47 48 49 50

264
ASUS43 KFSD 241002
RWRSD

WEATHER ROUNDUP FOR SOUTH DAKOTA
NATIONAL WEATHER SERVICE SIOUX FALLS SD
500 AM CDT TUE APR 24 2018

NOTE: "FAIR" INDICATES FEW OR NO CLOUDS BELOW 12,000 FEET WITH NO
SIGNIFICANT WEATHER AND/OR OBSTRUCTIONS TO VISIBILITY.


SDZ001>005-009-010-012>017-241100-
NORTHWEST AND NORTH CENTRAL SOUTH DAKOTA

CITY           SKY/WX    TMP DP  RH WIND       PRES   REMARKS
BUFFALO          N/A     34  32  92 NW10      30.35R WCI  26
FAITH            N/A     34  34 100 N28G35    30.31R WCI  21
MOBRIDGE       RAIN      41  37  86 N30G39    30.22R FOG
$$

SDZ012>016-024>037-041>051-057-063-072>074-241100-
SOUTHWEST AND SOUTH CENTRAL SOUTH DAKOTA

CITY           SKY/WX    TMP DP  RH WIND       PRES   REMARKS
RAPID CTY ARPT LGT SNOW  35  32  88 NW31G38   30.35R FOG     WCI  22
PIERRE         CLOUDY    49  46  90 NE5       30.09R
CUSTER         CLOUDY    30  22  72 N10G20    30.30R WCI  21
ELLSWORTH AFB  LGT RAIN  35  35 100 NW24G32   30.35R WCI  22
PHILIP         CLOUDY    38  37  97 NW31G40   30.22R
PINE RIDGE     CLOUDY    37  34  89 N18G30    30.31R
SPEARFISH      MIX PCPN  32  32 100 NW12G17   30.42R WCI  23
WINNER         CLOUDY    46  40  79 W17G25    30.15S
$$

SDZ004>011-016>023-039-040-241100-
NORTHEAST SOUTH DAKOTA

CITY           SKY/WX    TMP DP  RH WIND       PRES   REMARKS
ABERDEEN       CLOUDY    47  42  83 N15       30.24R
WATERTOWN      CLOUDY    47  41  80 N6        30.16S
BROOKINGS      CLOUDY    47  41  80 CALM      30.14S
SISSETON         N/A     48  40  73 NW10      30.20R
$$

SDZ017-020-022-023-036>040-048>070-241100-
SOUTHEAST SOUTH DAKOTA

CITY           SKY/WX    TMP DP  RH WIND       PRES   REMARKS
SIOUX FALLS    CLOUDY    45  39  79 N3        30.13S
HURON          CLOUDY    51  44  77 W5        30.14R
CHAMBERLAIN    CLOUDY    49  49  98 W6        30.14S
MITCHELL       CLOUDY    51  43  74 SE3       30.13F
YANKTON        CLOUDY    47  41  80 CALM      30.13R
$$

ABBREVIATIONS USED IN REMARKS
   TC - TEMPERATURE IN CELSIUS
  WCI - WIND CHILL INDEX
   HX - HEAT INDEX
  VSB - VISIBILITY





USA.gov is the U.S. government's official web portal to all federal, state and local government web resources and services.